sat.trackr.live / text

‹ back to catalog

SKYNET 5A

NORAD 30794 · 2007-007B

PAYLOAD ACTIVE UNKNOWN

§ Identity

Operator
Country
UK
Launch date
2007-03-11
Launch site
FRGUI
Launch vehicle
Mass (kg)
RCS (m²)
41.81

Purposes: comms

External: N2YO · Heavens-Above · Gunter

§ Orbital elements

Epoch: 2026-09-13T00:37:13.414080Z

Period
1,436.07 min
Inclination
5.5178°
Eccentricity
0.0003411
Mean motion
1.00273509 rev/d
Perigee alt
35,771.7 km
Apogee alt
35,800.5 km
Semi-major
42,164.2 km
B*
0.0000e+0
RAAN
72.6234°
Arg perigee
106.0391°
Mean anomaly
277.8950°
Rev number
7,158

§ Raw data

SKYNET 5A1 30794U 07007B   26256.02584970 -.00000282  00000+0  00000+0 0  99942 30794   5.5178  72.6234 0003411 106.0391 277.8950  1.00273509 71580

JSON: /api/v1/satellites/30794 · /tle

For live sub-satellite position, see the globe view (requires WebGL).

§ Visibility from observer

Set your observer location to see the next 7 days of passes ≥ 10°. The values pass through the URL so the page stays shareable.

No JS? Fill the form by hand. The geolocation button needs JavaScript.